KORONAS-FOTON

Last updated on Mon Sep 21 2026 00:02:09 GMT+0000 (Coordinated Universal Time)

1 33504U 09003A 26263.44061462 .00010171 00000+0 19623-3 0 9996 2 33504 82.4265 72.7325 0010003 163.4154 196.7425 15.47605898975826
UTC large
Height (km)
Speed (km/s)
/
Latitude / Longitude
Inclination (degrees)
Orbital Period (minutes)
Azimuth
Elevation
Range (km)
Doppler Factor

Next 0 passes for location: London (51.5072 / 0.1276)

No passes found over London.
KORONAS-FOTON